Location: Hamburg
(53.5500°N, 10.0000°E)
Time: 11:02:36
(UTC+01:00)

Vanguard 1 Rocket - Visible Passes

Search period start: 15 December 2017 00:00
Search period end: 25 December 2017 00:00
Orbit: 656 x 4222 km, 34.3° (Epoch: 13 December)

Date Brightness Start Highest point End Pass type
(mag) Time Alt. Az. Time Alt. Az. Time Alt. Az.
15 Dec 10.5 16:38:44 10° SSW 16:46:15 23° SE 16:57:45 10° ESE visible
15 Dec 10.4 19:00:16 10° SW 19:11:20 37° S 19:22:36 22° SE visible
15 Dec 10.8 21:24:48 10° WSW 21:38:36 34° SSW 21:39:54 33° SSW visible
15 Dec 11.5 23:53:52 10° WSW 23:57:12 14° WSW 23:57:12 14° WSW visible
16 Dec 10.3 17:50:26 10° SW 17:59:39 32° SSE 18:15:02 10° ESE visible
16 Dec 10.6 20:13:44 10° WSW 20:26:01 36° S 20:32:52 30° SSE visible
16 Dec 11.1 22:40:13 10° WSW 22:50:10 24° SW 22:50:10 24° SW visible
17 Dec 10.4 16:41:16 10° SSW 16:48:36 25° SSE 17:00:08 10° ESE visible
17 Dec 10.4 19:03:17 10° WSW 19:13:49 35° S 19:25:54 19° SE visible
17 Dec 10.9 21:28:08 10° WSW 21:40:55 29° SSW 21:43:13 29° SSW visible
17 Dec 11.5 23:59:23 10° WSW 00:00:31 11° WSW 00:00:31 11° WSW visible
18 Dec 10.3 17:53:20 10° SW 18:02:10 32° SSE 18:16:59 10° ESE visible
18 Dec 10.6 20:16:57 10° WSW 20:28:29 32° SSW 20:36:21 25° SSE visible
18 Dec 11.2 22:44:17 10° WSW 22:53:41 20° SW 22:53:41 20° SW visible
19 Dec 10.3 16:43:59 10° SSW 16:51:05 26° SSE 17:02:25 10° ESE visible
19 Dec 10.4 19:06:24 10° WSW 19:16:23 33° S 19:29:36 15° SE visible
19 Dec 11.0 21:31:43 10° WSW 21:43:17 25° SSW 21:46:57 24° SSW visible
20 Dec 10.3 17:56:22 10° SW 18:04:46 31° S 18:18:50 10° ESE visible
20 Dec 10.7 20:20:19 10° WSW 20:31:00 28° SSW 20:40:20 20° SSE visible
20 Dec 11.4 22:49:18 10° WSW 22:57:41 15° SW 22:57:41 15° SW visible
21 Dec 10.3 16:46:50 10° SW 16:53:41 26° SSE 17:04:37 10° ESE visible
21 Dec 10.5 19:09:38 10° WSW 19:19:01 30° S 19:33:54 11° SE visible
21 Dec 11.1 21:35:43 10° WSW 21:45:41 20° SSW 21:51:17 18° S visible
22 Dec 10.3 17:59:30 10° SW 18:07:27 29° S 18:20:32 10° SE visible
22 Dec 10.9 20:23:55 10° WSW 20:33:34 24° SSW 20:45:04 14° SSE visible
22 Dec 11.6 22:59:00 10° SW 23:00:12 10° SW 23:01:26 10° SW visible
23 Dec 10.2 16:49:50 10° SW 16:56:21 25° SSE 17:06:41 10° ESE visible
23 Dec 10.6 19:13:03 10° WSW 19:21:42 26° S 19:35:17 10° SE visible
23 Dec 11.3 21:40:32 10° WSW 21:48:10 15° SSW 21:56:35 11° S visible
24 Dec 10.4 18:02:47 10° SW 18:10:12 26° S 18:22:05 10° SE visible
24 Dec 11.0 20:27:55 10° WSW 20:36:11 19° SSW 20:47:46 10° SSE visible
